UAL166 RCTP-PGUM

Flight info

Callsign UAL166
Flight time 2h 10m
Altitude 37000
Route KUDOS1C KUDOS R595 OTTRE
Aircraft B38M/M-SDE1FGHILORVWXY/HB1

Departure

Time 2026-04-26 09:32
Airport Taiwan Taoyuan International Airport (RCTP)

Arrival

Time 2026-04-26 11:42
Airport Antonio B. Won Pat International Airport (PGUM)
Time Latitude Longitude Altitude Speed Heading
2026-04-26 09:01 25.07949 121.23113 103 ft 0 kts 139°
2026-04-26 09:19 25.07951 121.23112 103 ft 2 kts 139°
2026-04-26 09:20 25.07971 121.23093 103 ft 4 kts 139°
2026-04-26 09:20 25.07991 121.23073 102 ft 4 kts 139°
2026-04-26 09:20 25.08011 121.23054 103 ft 4 kts 139°
2026-04-26 09:20 25.08027 121.23040 103 ft 4 kts 164°
2026-04-26 09:21 25.08044 121.23047 103 ft 3 kts 229°
2026-04-26 09:21 25.08061 121.23068 103 ft 2 kts 229°
2026-04-26 09:21 25.08062 121.23070 102 ft 0 kts 229°
2026-04-26 09:24 25.08057 121.23063 102 ft 5 kts 229°
2026-04-26 09:25 25.08010 121.22998 102 ft 14 kts 245°
2026-04-26 09:25 25.08037 121.22899 103 ft 14 kts 281°
2026-04-26 09:25 25.07989 121.22810 103 ft 15 kts 229°
2026-04-26 09:25 25.07919 121.22722 103 ft 16 kts 229°
2026-04-26 09:26 25.07824 121.22602 103 ft 25 kts 230°
2026-04-26 09:26 25.07697 121.22437 102 ft 31 kts 229°
2026-04-26 09:26 25.07550 121.22249 103 ft 33 kts 229°
2026-04-26 09:26 25.07401 121.22061 103 ft 25 kts 229°
2026-04-26 09:27 25.07334 121.21976 103 ft 13 kts 229°
2026-04-26 09:27 25.07272 121.21898 102 ft 14 kts 229°
2026-04-26 09:27 25.07202 121.21809 103 ft 16 kts 229°
2026-04-26 09:27 25.07178 121.21737 103 ft 10 kts 305°
2026-04-26 09:28 25.07216 121.21699 104 ft 4 kts 319°
2026-04-26 09:28 25.07218 121.21698 104 ft 0 kts 319°
2026-04-26 09:29 25.07240 121.21677 104 ft 11 kts 319°
2026-04-26 09:29 25.07320 121.21634 104 ft 5 kts 43°
2026-04-26 09:30 25.07336 121.21655 104 ft 5 kts 49°
2026-04-26 09:30 25.07337 121.21656 104 ft 0 kts 49°
2026-04-26 09:31 25.07341 121.21661 104 ft 4 kts 49°
2026-04-26 09:31 25.07409 121.21748 103 ft 38 kts 49°
2026-04-26 09:31 25.07753 121.22184 105 ft 111 kts 49°
2026-04-26 09:31 25.08399 121.23011 134 ft 168 kts 48°
2026-04-26 09:32 25.09188 121.24028 826 ft 176 kts 49°
2026-04-26 09:32 25.09999 121.25074 1780 ft 181 kts 50°
2026-04-26 09:32 25.10856 121.26169 2485 ft 199 kts 48°
2026-04-26 09:32 25.11811 121.27379 3191 ft 220 kts 49°
2026-04-26 09:33 25.12855 121.28694 3907 ft 237 kts 48°
2026-04-26 09:33 25.13963 121.30111 4663 ft 251 kts 49°
2026-04-26 09:33 25.15128 121.31633 5354 ft 268 kts 48°
2026-04-26 09:33 25.16356 121.33233 6013 ft 286 kts 48°
2026-04-26 09:34 25.17673 121.34946 6926 ft 289 kts 48°
2026-04-26 09:34 25.18961 121.36620 7863 ft 293 kts 48°
2026-04-26 09:34 25.20296 121.38356 8742 ft 298 kts 48°
2026-04-26 09:34 25.21651 121.40117 9634 ft 304 kts 47°
2026-04-26 09:35 25.23033 121.41914 10399 ft 311 kts 47°
2026-04-26 09:35 25.24465 121.43778 10958 ft 325 kts 47°
2026-04-26 09:35 25.25962 121.45728 11483 ft 339 kts 47°
2026-04-26 09:35 25.27510 121.47743 12121 ft 346 kts 47°
2026-04-26 09:36 25.28873 121.49938 12962 ft 352 kts 63°
2026-04-26 09:36 25.29479 121.52573 13701 ft 360 kts 86°
2026-04-26 09:36 25.29156 121.55331 14356 ft 367 kts 108°
2026-04-26 09:36 25.27960 121.57825 14982 ft 372 kts 129°
2026-04-26 09:37 25.26315 121.60051 15528 ft 379 kts 122°
2026-04-26 09:37 25.25303 121.62719 16238 ft 377 kts 102°
2026-04-26 09:37 25.24639 121.65538 16747 ft 385 kts 105°
2026-04-26 09:37 25.23804 121.68367 17348 ft 388 kts 108°
2026-04-26 09:38 25.22895 121.71191 17942 ft 393 kts 109°
2026-04-26 09:38 25.21938 121.74037 18469 ft 397 kts 109°
2026-04-26 09:38 25.20955 121.76901 18971 ft 401 kts 110°
2026-04-26 09:38 25.19947 121.79792 19473 ft 405 kts 110°
2026-04-26 09:39 25.18924 121.82708 19949 ft 410 kts 110°
2026-04-26 09:39 25.17888 121.85653 20449 ft 413 kts 110°
2026-04-26 09:39 25.16842 121.88621 20933 ft 417 kts 110°
2026-04-26 09:39 25.15783 121.91622 21405 ft 421 kts 111°
2026-04-26 09:40 25.14716 121.94645 21888 ft 425 kts 111°
2026-04-26 09:40 25.13645 121.97699 22353 ft 429 kts 109°
2026-04-26 09:40 25.13028 122.00910 22837 ft 429 kts 93°
2026-04-26 09:40 25.12732 122.04198 23244 ft 434 kts 94°
2026-04-26 09:41 25.12431 122.07534 23668 ft 438 kts 94°
2026-04-26 09:41 25.12143 122.10884 24066 ft 441 kts 94°
2026-04-26 09:41 25.11856 122.14267 24432 ft 444 kts 94°
2026-04-26 09:41 25.11569 122.17670 24823 ft 447 kts 94°
2026-04-26 09:42 25.11503 122.18447 24899 ft 447 kts 94°
2026-04-26 09:42 25.11214 122.21874 25257 ft 450 kts 94°
2026-04-26 09:42 25.10921 122.25323 25641 ft 453 kts 94°
2026-04-26 09:42 25.10620 122.28792 26016 ft 456 kts 94°
2026-04-26 09:43 25.10292 122.32283 26380 ft 459 kts 94°
2026-04-26 09:43 25.09957 122.35791 26743 ft 461 kts 95°
2026-04-26 09:43 25.09618 122.39316 27099 ft 464 kts 95°
2026-04-26 09:43 25.09277 122.42866 27451 ft 466 kts 95°
2026-04-26 09:44 25.08933 122.46432 27802 ft 469 kts 95°
2026-04-26 09:44 25.08592 122.49969 28159 ft 471 kts 95°
2026-04-26 09:44 25.08242 122.53578 28479 ft 474 kts 95°
2026-04-26 09:44 25.07890 122.57204 28816 ft 477 kts 95°
2026-04-26 09:45 25.07535 122.60849 29145 ft 479 kts 95°
2026-04-26 09:45 25.07178 122.64513 29459 ft 482 kts 95°
2026-04-26 09:45 25.06817 122.68198 29774 ft 485 kts 95°
2026-04-26 09:45 25.06454 122.71901 30089 ft 487 kts 95°
2026-04-26 09:46 25.06089 122.75622 30363 ft 489 kts 95°
2026-04-26 09:46 25.05719 122.79364 30606 ft 492 kts 95°
2026-04-26 09:46 25.05348 122.83122 30865 ft 494 kts 95°
2026-04-26 09:46 25.04974 122.86892 31131 ft 496 kts 95°
2026-04-26 09:47 25.04597 122.90687 31387 ft 498 kts 94°
2026-04-26 09:47 25.04218 122.94491 31640 ft 501 kts 94°
2026-04-26 09:47 25.03836 122.98316 31897 ft 503 kts 94°
2026-04-26 09:47 25.03453 123.02156 32158 ft 505 kts 94°
2026-04-26 09:48 25.03067 123.06015 32401 ft 507 kts 94°
2026-04-26 09:48 25.02679 123.09884 32641 ft 509 kts 94°
2026-04-26 09:48 25.02287 123.13778 32880 ft 512 kts 94°
2026-04-26 09:48 25.01893 123.17685 33118 ft 514 kts 94°
2026-04-26 09:49 25.01496 123.21602 33353 ft 516 kts 94°
2026-04-26 09:49 25.01096 123.25540 33589 ft 518 kts 94°
2026-04-26 09:49 25.00694 123.29490 33885 ft 519 kts 94°
2026-04-26 09:49 25.00290 123.33438 34170 ft 518 kts 94°
2026-04-26 09:50 24.99885 123.37390 34437 ft 518 kts 94°
2026-04-26 09:50 24.99480 123.41333 34688 ft 518 kts 95°
2026-04-26 09:50 24.99074 123.45283 34943 ft 518 kts 95°
2026-04-26 09:50 24.98667 123.49227 35190 ft 518 kts 95°
2026-04-26 09:51 24.98258 123.53174 35428 ft 518 kts 95°
2026-04-26 09:51 24.97850 123.57116 35656 ft 518 kts 96°
2026-04-26 09:51 24.97439 123.61063 35879 ft 518 kts 96°
2026-04-26 09:51 24.97028 123.65010 36100 ft 518 kts 96°
2026-04-26 09:52 24.96615 123.68957 36320 ft 518 kts 96°
2026-04-26 09:52 24.95787 123.76845 36716 ft 518 kts 97°
2026-04-26 09:52 24.95372 123.80790 36902 ft 519 kts 97°
2026-04-26 09:53 24.94537 123.88684 36997 ft 518 kts 97°
2026-04-26 09:53 24.93700 123.96571 36999 ft 518 kts 97°
2026-04-26 09:54 24.92798 124.04451 36998 ft 518 kts 98°
2026-04-26 09:54 24.91879 124.12330 36998 ft 519 kts 98°
2026-04-26 09:55 24.90941 124.20344 36998 ft 519 kts 98°
2026-04-26 09:55 24.89090 124.36037 36998 ft 520 kts 99°
2026-04-26 09:56 24.87201 124.51837 36989 ft 521 kts 99°
2026-04-26 09:56 24.85305 124.67626 36978 ft 522 kts 99°
2026-04-26 09:57 24.83392 124.83471 36983 ft 522 kts 99°
2026-04-26 09:57 24.81450 124.99317 36971 ft 523 kts 99°
2026-04-26 09:58 24.79728 125.13187 36963 ft 523 kts 99°
2026-04-26 09:58 24.78763 125.21124 36964 ft 523 kts 100°
2026-04-26 09:59 24.77565 125.29009 36950 ft 518 kts 113°
2026-04-26 09:59 24.74571 125.36115 36954 ft 513 kts 121°
2026-04-26 10:00 24.71375 125.43140 36966 ft 513 kts 122°
2026-04-26 10:00 24.68141 125.50147 36981 ft 514 kts 122°
2026-04-26 10:01 24.64903 125.57145 36989 ft 514 kts 122°
2026-04-26 10:01 24.61680 125.64097 36997 ft 514 kts 122°
2026-04-26 10:02 24.58431 125.71100 36997 ft 514 kts 122°
2026-04-26 10:02 24.52591 125.83665 36999 ft 515 kts 122°
2026-04-26 10:03 24.46059 125.97647 36995 ft 514 kts 123°
2026-04-26 10:03 24.39528 126.11605 36995 ft 514 kts 123°
2026-04-26 10:04 24.34039 126.23304 36997 ft 514 kts 123°
2026-04-26 10:04 24.28602 126.34896 36997 ft 514 kts 124°
2026-04-26 10:05 24.22039 126.48794 36994 ft 513 kts 125°
2026-04-26 10:05 24.15484 126.62643 36996 ft 511 kts 125°
2026-04-26 10:06 24.09066 126.76538 36983 ft 511 kts 124°
2026-04-26 10:06 24.02694 126.90403 36985 ft 509 kts 125°
2026-04-26 10:07 23.96334 127.04229 36984 ft 508 kts 125°
2026-04-26 10:07 23.89977 127.18002 36983 ft 507 kts 125°
2026-04-26 10:08 23.83645 127.31732 36973 ft 506 kts 125°
2026-04-26 10:08 23.77293 127.45408 36968 ft 504 kts 126°
2026-04-26 10:09 23.70957 127.59024 36976 ft 502 kts 125°
2026-04-26 10:09 23.64637 127.72575 36971 ft 501 kts 125°
2026-04-26 10:10 23.58334 127.86101 36967 ft 499 kts 126°
2026-04-26 10:10 23.52012 127.99556 36967 ft 498 kts 126°
2026-04-26 10:11 23.45686 128.12970 36962 ft 497 kts 126°
2026-04-26 10:11 23.39386 128.26362 36959 ft 496 kts 126°
2026-04-26 10:12 23.33081 128.39695 36958 ft 494 kts 126°
2026-04-26 10:12 23.26777 128.52965 36966 ft 493 kts 127°
2026-04-26 10:13 23.20497 128.66192 36968 ft 492 kts 127°
2026-04-26 10:13 23.14255 128.79275 36964 ft 490 kts 127°
2026-04-26 10:14 23.08044 128.92260 36971 ft 489 kts 127°
2026-04-26 10:14 23.04907 128.98820 36975 ft 489 kts 126°
2026-04-26 10:15 23.01769 129.05366 36977 ft 488 kts 126°
2026-04-26 10:15 22.99140 129.12235 36993 ft 498 kts 117°
2026-04-26 10:16 22.96688 129.19853 36982 ft 498 kts 117°
2026-04-26 10:16 22.92130 129.34019 36981 ft 497 kts 117°
2026-04-26 10:17 22.87587 129.48157 36980 ft 496 kts 116°
2026-04-26 10:17 22.83036 129.62253 36988 ft 495 kts 117°
2026-04-26 10:18 22.79237 129.73964 36986 ft 495 kts 117°
2026-04-26 10:18 22.74653 129.88031 36992 ft 495 kts 116°
2026-04-26 10:19 22.70083 130.02098 36991 ft 495 kts 117°
2026-04-26 10:19 22.65475 130.16156 36994 ft 495 kts 117°
2026-04-26 10:20 22.60851 130.30182 36991 ft 494 kts 117°
2026-04-26 10:20 22.56242 130.44195 36994 ft 495 kts 116°
2026-04-26 10:21 22.51630 130.58205 37002 ft 494 kts 117°
2026-04-26 10:21 22.46980 130.72178 36995 ft 493 kts 117°
2026-04-26 10:22 22.42341 130.86136 36998 ft 493 kts 116°
2026-04-26 10:22 22.37716 130.99981 36999 ft 493 kts 116°
2026-04-26 10:23 22.33080 131.13898 37002 ft 492 kts 116°
2026-04-26 10:23 22.28423 131.27766 37000 ft 491 kts 116°
2026-04-26 10:24 22.23755 131.41595 36997 ft 490 kts 116°
2026-04-26 10:24 22.19104 131.55393 37006 ft 489 kts 116°
2026-04-26 10:25 22.14452 131.69167 37006 ft 488 kts 116°
2026-04-26 10:25 22.09785 131.82891 37009 ft 488 kts 116°
2026-04-26 10:26 22.05102 131.96613 37007 ft 487 kts 116°
2026-04-26 10:26 22.00435 132.10320 37011 ft 487 kts 116°
2026-04-26 10:27 21.95735 132.23993 37010 ft 486 kts 116°
2026-04-26 10:27 21.91032 132.37652 37013 ft 486 kts 115°
2026-04-26 10:28 21.86339 132.51294 37013 ft 486 kts 115°
2026-04-26 10:28 21.81620 132.64910 37016 ft 485 kts 115°
2026-04-26 10:29 21.76917 132.78507 37016 ft 484 kts 115°
2026-04-26 10:29 21.72187 132.92052 37018 ft 484 kts 115°
2026-04-26 10:30 21.67466 133.05585 37018 ft 483 kts 115°
2026-04-26 10:30 21.62750 133.19097 37021 ft 482 kts 115°
2026-04-26 10:31 21.58001 133.32564 37019 ft 482 kts 115°
2026-04-26 10:31 21.53273 133.46017 37026 ft 481 kts 115°
2026-04-26 10:32 21.48541 133.59468 37024 ft 481 kts 115°
2026-04-26 10:32 21.43765 133.72869 37023 ft 481 kts 115°
2026-04-26 10:33 21.39014 133.86274 37023 ft 481 kts 115°
2026-04-26 10:33 21.34280 133.99570 37028 ft 480 kts 115°
2026-04-26 10:34 21.29499 134.12935 37034 ft 480 kts 115°
2026-04-26 10:34 21.24707 134.26288 37029 ft 479 kts 116°
2026-04-26 10:35 21.19923 134.39625 37023 ft 479 kts 115°
2026-04-26 10:35 21.15134 134.52945 37030 ft 479 kts 115°
2026-04-26 10:36 21.10316 134.66241 37030 ft 478 kts 115°
2026-04-26 10:36 21.05779 134.78789 37035 ft 478 kts 115°
2026-04-26 10:37 21.03369 134.85419 37031 ft 477 kts 115°
2026-04-26 10:37 21.00962 134.92039 37030 ft 477 kts 116°
2026-04-26 10:38 20.99432 134.95140 37021 ft 466 kts 131°
2026-04-26 10:38 20.97404 134.97825 37031 ft 465 kts 133°
2026-04-26 10:38 20.93297 135.03198 37030 ft 469 kts 136°
2026-04-26 10:39 20.87492 135.10611 37028 ft 475 kts 136°
2026-04-26 10:39 20.78993 135.21438 37036 ft 475 kts 136°
2026-04-26 10:40 20.70467 135.32236 37033 ft 475 kts 136°
2026-04-26 10:40 20.61950 135.43045 37034 ft 476 kts 135°
2026-04-26 10:41 20.53432 135.53845 37035 ft 476 kts 135°
2026-04-26 10:41 20.44894 135.64612 37037 ft 475 kts 136°
2026-04-26 10:42 20.36343 135.75366 37032 ft 475 kts 136°
2026-04-26 10:42 20.27780 135.86121 37038 ft 476 kts 135°
2026-04-26 10:43 20.19229 135.96872 37033 ft 475 kts 136°
2026-04-26 10:43 20.10717 136.07515 37031 ft 475 kts 135°
2026-04-26 10:44 20.02156 136.18243 37029 ft 475 kts 135°
2026-04-26 10:44 19.93519 136.29011 37034 ft 475 kts 135°
2026-04-26 10:45 19.84941 136.39689 37033 ft 475 kts 135°
2026-04-26 10:45 19.76432 136.50299 37036 ft 475 kts 135°
2026-04-26 10:46 19.67849 136.60963 37032 ft 475 kts 135°
2026-04-26 10:46 19.59259 136.71599 37033 ft 475 kts 135°
2026-04-26 10:47 19.50656 136.82227 37036 ft 475 kts 134°
2026-04-26 10:47 19.42058 136.92844 37032 ft 474 kts 135°
2026-04-26 10:48 19.33462 137.03451 37025 ft 474 kts 135°
2026-04-26 10:48 19.24845 137.14036 37021 ft 474 kts 135°
2026-04-26 10:49 19.16242 137.24610 37010 ft 474 kts 134°
2026-04-26 10:49 19.07630 137.35177 37011 ft 474 kts 134°
2026-04-26 10:50 19.00466 137.43937 37010 ft 474 kts 134°
2026-04-26 10:50 18.90403 137.56231 37011 ft 473 kts 135°
2026-04-26 10:51 18.77554 137.71936 37013 ft 473 kts 135°
2026-04-26 10:52 18.68924 137.82396 37011 ft 472 kts 134°
2026-04-26 10:52 18.60305 137.92860 37007 ft 472 kts 134°
2026-04-26 10:53 18.51699 138.03318 37009 ft 472 kts 134°
2026-04-26 10:53 18.43069 138.13746 37009 ft 472 kts 134°
2026-04-26 10:54 18.30127 138.29369 37004 ft 472 kts 134°
2026-04-26 10:54 18.21519 138.39792 37001 ft 472 kts 134°
2026-04-26 10:55 18.12885 138.50187 37003 ft 472 kts 134°
2026-04-26 10:55 18.05695 138.58797 37000 ft 471 kts 134°
2026-04-26 10:56 17.95596 138.70931 36998 ft 472 kts 133°
2026-04-26 10:56 17.86945 138.81285 36997 ft 471 kts 134°
2026-04-26 10:57 17.78348 138.91558 36998 ft 471 kts 133°
2026-04-26 10:57 17.69700 139.01904 36995 ft 471 kts 133°
2026-04-26 10:58 17.61031 139.12220 36993 ft 471 kts 133°
2026-04-26 10:58 17.52376 139.22527 36992 ft 471 kts 133°
2026-04-26 10:59 17.43712 139.32815 36991 ft 471 kts 133°
2026-04-26 10:59 17.35055 139.43099 36989 ft 470 kts 133°
2026-04-26 11:00 17.26382 139.53352 36992 ft 470 kts 133°
2026-04-26 11:00 17.17732 139.63615 36989 ft 470 kts 133°
2026-04-26 11:01 17.09059 139.73855 36990 ft 470 kts 133°
2026-04-26 11:01 17.00368 139.84082 36988 ft 471 kts 133°
2026-04-26 11:02 16.91682 139.94318 36987 ft 471 kts 132°
2026-04-26 11:02 16.82982 140.04553 36985 ft 471 kts 133°
2026-04-26 11:03 16.74324 140.14717 36986 ft 472 kts 133°
2026-04-26 11:03 16.65529 140.25008 36984 ft 472 kts 133°
2026-04-26 11:04 16.56847 140.35173 36979 ft 473 kts 132°
2026-04-26 11:04 16.48098 140.45416 36982 ft 473 kts 132°
2026-04-26 11:05 16.39331 140.55643 36980 ft 473 kts 133°
2026-04-26 11:05 16.30554 140.65848 36976 ft 473 kts 132°
2026-04-26 11:06 16.23198 140.74407 36972 ft 473 kts 132°
2026-04-26 11:06 16.13010 140.86273 36976 ft 474 kts 132°
2026-04-26 11:07 16.04209 140.96473 36975 ft 474 kts 132°
2026-04-26 11:07 15.95417 141.06671 36973 ft 473 kts 131°
2026-04-26 11:08 15.87210 141.16165 36972 ft 473 kts 132°
2026-04-26 11:08 15.83554 141.20390 36974 ft 473 kts 131°
2026-04-26 11:09 15.79153 141.25475 36973 ft 473 kts 131°
2026-04-26 11:09 15.75069 141.30803 36980 ft 472 kts 124°
2026-04-26 11:10 15.69199 141.39729 36972 ft 472 kts 124°
2026-04-26 11:10 15.61757 141.50951 36970 ft 472 kts 124°
2026-04-26 11:11 15.54329 141.62181 36969 ft 472 kts 123°
2026-04-26 11:11 15.46923 141.73399 36966 ft 471 kts 123°
2026-04-26 11:12 15.39497 141.84595 36969 ft 471 kts 123°
2026-04-26 11:12 15.32084 141.95781 36968 ft 471 kts 123°
2026-04-26 11:13 15.24658 142.06937 36971 ft 470 kts 123°
2026-04-26 11:13 15.17244 142.18084 36965 ft 470 kts 123°
2026-04-26 11:14 15.09836 142.29223 36964 ft 469 kts 123°
2026-04-26 11:14 15.02411 142.40333 36967 ft 469 kts 123°
2026-04-26 11:15 14.94992 142.51424 36967 ft 468 kts 122°
2026-04-26 11:15 14.87580 142.62505 36966 ft 468 kts 123°
2026-04-26 11:16 14.80210 142.73492 36963 ft 468 kts 122°
2026-04-26 11:16 14.72799 142.84542 36962 ft 468 kts 122°
2026-04-26 11:17 14.67856 142.91895 36962 ft 468 kts 122°
2026-04-26 11:17 14.64149 142.97413 36962 ft 468 kts 123°
2026-04-26 11:18 14.60439 143.02927 36965 ft 467 kts 123°
2026-04-26 11:18 14.56725 143.08443 36964 ft 468 kts 123°
2026-04-26 11:19 14.53014 143.13951 36962 ft 468 kts 123°
2026-04-26 11:19 14.49329 143.19416 36605 ft 457 kts 123°
2026-04-26 11:20 14.47520 143.22099 36111 ft 454 kts 123°
2026-04-26 11:20 14.46327 143.23865 35766 ft 453 kts 123°
2026-04-26 11:20 14.43925 143.27425 35085 ft 450 kts 123°
2026-04-26 11:20 14.42141 143.30068 34595 ft 448 kts 123°
2026-04-26 11:21 14.40369 143.32704 34030 ft 448 kts 122°
2026-04-26 11:21 14.38599 143.35350 33407 ft 448 kts 122°
2026-04-26 11:21 14.36839 143.37980 32959 ft 443 kts 122°
2026-04-26 11:21 14.35094 143.40584 32527 ft 439 kts 122°
2026-04-26 11:22 14.33367 143.43162 32043 ft 436 kts 122°
2026-04-26 11:22 14.31648 143.45727 31545 ft 434 kts 122°
2026-04-26 11:22 14.29937 143.48279 31077 ft 431 kts 122°
2026-04-26 11:22 14.28234 143.50819 30595 ft 429 kts 122°
2026-04-26 11:23 14.26540 143.53345 30123 ft 428 kts 122°
2026-04-26 11:23 14.24851 143.55860 29569 ft 426 kts 122°
2026-04-26 11:23 14.23169 143.58367 29056 ft 423 kts 122°
2026-04-26 11:23 14.21501 143.60851 28586 ft 420 kts 122°
2026-04-26 11:24 14.19845 143.63316 28118 ft 416 kts 122°
2026-04-26 11:24 14.18226 143.65726 27661 ft 413 kts 122°
2026-04-26 11:24 14.16594 143.68153 27202 ft 410 kts 122°
2026-04-26 11:24 14.14976 143.70561 26739 ft 408 kts 122°
2026-04-26 11:25 14.13368 143.72952 26290 ft 405 kts 122°
2026-04-26 11:25 14.11768 143.75330 25835 ft 402 kts 122°
2026-04-26 11:25 14.10180 143.77692 25390 ft 400 kts 122°
2026-04-26 11:25 14.08600 143.80039 24942 ft 398 kts 122°
2026-04-26 11:26 14.07027 143.82375 24489 ft 396 kts 122°
2026-04-26 11:26 14.05462 143.84698 24052 ft 394 kts 122°
2026-04-26 11:26 14.03904 143.87012 23605 ft 392 kts 122°
2026-04-26 11:26 14.02355 143.89312 23103 ft 390 kts 122°
2026-04-26 11:27 14.00812 143.91602 22618 ft 387 kts 122°
2026-04-26 11:27 13.99284 143.93868 22177 ft 384 kts 123°
2026-04-26 11:27 13.97769 143.96114 21749 ft 380 kts 123°
2026-04-26 11:27 13.96268 143.98340 21325 ft 377 kts 123°
2026-04-26 11:28 13.94778 144.00548 20895 ft 374 kts 123°
2026-04-26 11:28 13.93298 144.02742 20473 ft 372 kts 122°
2026-04-26 11:28 13.91827 144.04920 20053 ft 369 kts 123°
2026-04-26 11:28 13.90366 144.07083 19630 ft 367 kts 123°
2026-04-26 11:29 13.88916 144.09230 19208 ft 365 kts 123°
2026-04-26 11:29 13.87472 144.11368 18797 ft 363 kts 123°
2026-04-26 11:29 13.86033 144.13497 18371 ft 362 kts 123°
2026-04-26 11:29 13.84600 144.15617 17918 ft 360 kts 123°
2026-04-26 11:30 13.83175 144.17727 17471 ft 358 kts 123°
2026-04-26 11:30 13.82237 144.19113 17190 ft 356 kts 124°
2026-04-26 11:30 13.80376 144.21864 16637 ft 352 kts 124°
2026-04-26 11:30 13.78984 144.23921 16231 ft 349 kts 124°
2026-04-26 11:31 13.77605 144.25958 15833 ft 345 kts 124°
2026-04-26 11:31 13.76239 144.27977 15450 ft 342 kts 124°
2026-04-26 11:31 13.74888 144.29972 15057 ft 339 kts 125°
2026-04-26 11:31 13.73545 144.31956 14659 ft 336 kts 125°
2026-04-26 11:32 13.72213 144.33921 14256 ft 334 kts 126°
2026-04-26 11:32 13.70889 144.35876 13860 ft 332 kts 126°
2026-04-26 11:32 13.69573 144.37819 13425 ft 330 kts 126°
2026-04-26 11:32 13.68265 144.39749 12990 ft 327 kts 126°
2026-04-26 11:33 13.66970 144.41658 12587 ft 324 kts 126°
2026-04-26 11:33 13.65691 144.43545 12193 ft 320 kts 126°
2026-04-26 11:33 13.64426 144.45411 11810 ft 316 kts 126°
2026-04-26 11:33 13.63176 144.47252 11430 ft 312 kts 126°
2026-04-26 11:34 13.61937 144.49071 11035 ft 309 kts 128°
2026-04-26 11:34 13.60389 144.50594 10392 ft 313 kts 148°
2026-04-26 11:34 13.58367 144.51485 9721 ft 320 kts 159°
2026-04-26 11:34 13.56277 144.52327 8976 ft 325 kts 156°
2026-04-26 11:35 13.54161 144.53201 8231 ft 331 kts 156°
2026-04-26 11:35 13.52008 144.54088 7494 ft 336 kts 156°
2026-04-26 11:35 13.49826 144.54984 6827 ft 339 kts 155°
2026-04-26 11:35 13.48382 144.55575 6509 ft 336 kts 155°
2026-04-26 11:36 13.45503 144.56753 6035 ft 326 kts 155°
2026-04-26 11:36 13.43459 144.57587 6041 ft 307 kts 155°
2026-04-26 11:36 13.41687 144.58626 6035 ft 283 kts 133°
2026-04-26 11:36 13.40730 144.60270 6031 ft 262 kts 104°
2026-04-26 11:37 13.40656 144.62053 5974 ft 239 kts 81°
2026-04-26 11:37 13.41136 144.63587 5738 ft 216 kts 68°
2026-04-26 11:37 13.41756 144.64936 5362 ft 199 kts 66°
2026-04-26 11:37 13.42335 144.66192 4833 ft 192 kts 67°
2026-04-26 11:38 13.42901 144.67435 4116 ft 193 kts 66°
2026-04-26 11:38 13.43477 144.68702 3258 ft 199 kts 65°
2026-04-26 11:38 13.44067 144.69998 2483 ft 200 kts 64°
2026-04-26 11:38 13.44641 144.71261 1956 ft 188 kts 65°
2026-04-26 11:39 13.45162 144.72403 1676 ft 165 kts 66°
2026-04-26 11:39 13.45618 144.73409 1392 ft 144 kts 65°
2026-04-26 11:39 13.46021 144.74286 1162 ft 133 kts 65°
2026-04-26 11:39 13.46417 144.75159 994 ft 136 kts 65°
2026-04-26 11:40 13.46810 144.76027 792 ft 131 kts 64°
2026-04-26 11:40 13.47195 144.76867 562 ft 132 kts 68°
2026-04-26 11:40 13.47628 144.77815 456 ft 148 kts 68°
2026-04-26 11:40 13.48044 144.78732 293 ft 132 kts 65°
2026-04-26 11:41 13.48378 144.79464 285 ft 92 kts 64°
2026-04-26 11:42 13.49136 144.80668 304 ft 16 kts 64°
2026-04-26 11:43 13.49188 144.80776 300 ft 18 kts 64°
2026-04-26 11:43 13.49247 144.80894 301 ft 19 kts 60°
2026-04-26 11:43 13.49317 144.81017 301 ft 21 kts 51°
2026-04-26 11:43 13.49439 144.81016 300 ft 19 kts 330°
2026-04-26 11:44 13.49551 144.80939 301 ft 17 kts 292°
2026-04-26 11:44 13.49518 144.80851 301 ft 11 kts 222°
2026-04-26 11:44 13.49483 144.80845 303 ft 4 kts 156°
2026-04-26 11:44 13.49455 144.80859 302 ft 1 kts 151°
2026-04-26 11:45 13.49447 144.80863 299 ft 0 kts 152°